Notices

What's New in latest Release from April 7th, 2021:

- Updated Glossary, including Speed of Maximum Gust, and Total Hourly Precipitation

- Updated national and regional climate services offices contacts and prices information

- Addition of station inventory lists for 1981-2010, 1971-2000, and 1961-1990 Normals.

If you haven't already, please take our survey and provide feedback about our website: https://eccc.sondage-survey.ca/f/LanguageSelection.aspx?s=442ca660-fcf1-47c0-95a9-59707d6fd709

Hourly Data Report for October 18, 2020

CARBERRY CS
MANITOBA
Current Station Operator: ECCC - MSC

49°54'20.900" N
99°21'26.800" W
383.50 m
5010547
71170
WZE

Download Data

Hourly Data (October 2020)
Hourly Data Report for October 18, 2020
TIME
LST
Temp Definition
°C
Dew Point Definition
°C
Rel Hum Definition
%
Precip. Amount Definition
mm

Wind Dir Definition
10's deg

Wind Spd Definition
km/h
Visibility Definition
km
Stn Press Definition
kPa
Hmdx Definition


Wind Chill Definition


Weather Definition


00:00 -2.9 -10.0 58 0.0 28 23   97.11   -9 LegendNANA
01:00 -3.0 -9.8 60 0.0 28 22   97.11   -9 LegendNANA
02:00 -3.0 -9.7 60 0.0 28 25   97.11   -10 LegendNANA
03:00 -3.2 -9.2 63 0.0 28 21   97.13   -9 LegendNANA
04:00 -3.3 -9.3 63 0.0 28 29   97.17   -11 LegendNANA
05:00 -4.0 -9.2 67 0.0 28 26   97.21   -11 LegendNANA
06:00 -4.1 -8.7 70 0.0 28 19   97.25   -10 LegendNANA
07:00 -3.4 -9.2 64 0.0 28 27   97.25   -11 LegendNANA
08:00 -4.1 -9.2 67 0.0 27 27   97.26   -11 LegendNANA
09:00 -3.5 -8.8 66 0.0 28 32   97.28   -11 LegendNANA
10:00 -2.7 -8.7 63 0.0 29 28   97.30   -10 LegendNANA
11:00 -1.5 -8.4 59 0.0 28 29   97.32   -8 LegendNANA
12:00 -0.9 -8.6 56 0.0 28 29   97.34   -8 LegendNANA
13:00 0.2 -9.2 49 0.0 28 27   97.27     LegendNANA
14:00 0.6 -9.7 46 0.0 26 29   97.25     LegendNANA
15:00 0.4 -10.0 46 0.0 27 24   97.28     LegendNANA
16:00 0.5 -11.0 42 0.0 27 28   97.27     LegendNANA
17:00 -1.3 -10.5 50 0.0 28 26   97.31   -8 LegendNANA
18:00 -2.9 -10.5 56 0.0 29 16   97.37   -8 LegendNANA
19:00 -4.7 -10.2 65 0.0 28 14   97.39   -10 LegendNANA
20:00 -4.9 -10.0 68 0.0 29 12   97.44   -10 LegendNANA
21:00 -6.9 -11.1 72 0.0 28 13   97.46   -12 LegendNANA
22:00 -6.8 -10.6 74 0.0 28 9   97.47   -11 LegendNANA
23:00 -7.4 -11.1 75 0.0 25 11   97.46   -12 LegendNANA

Notes on Data Quality.

Legend

  • E = Estimated
  • M = Missing
  • NA = Not Available*
  • [empty] = Indicates an unobserved value
Date modified: